Time,TemperatureF,DewpointF,PressureIn,WindDirection,WindDirectionDegrees,WindSpeedMPH,WindSpeedGustMPH,Humidity,HourlyPrecipIn,Conditions,Clouds,dailyrainin,SolarRadiationWatts/m^2,SoftwareType,DateUTC
2013-02-24 00:00:00,72.9,71.0,29.97,East,83,0.0,-999.0,94,-99.99,,,0.00,0,weatherlink.com 1.10,2013-02-24 05:00:00,
2013-02-24 00:14:00,72.4,71.0,29.97,East,83,0.0,-999.0,94,-99.99,,,0.00,0,weatherlink.com 1.10,2013-02-24 05:14:00,
2013-02-24 00:29:00,72.7,71.0,29.97,East,83,0.0,-999.0,94,-99.99,,,0.00,0,weatherlink.com 1.10,2013-02-24 05:29:00,
2013-02-24 00:44:00,72.6,71.0,29.97,East,83,0.0,-999.0,94,-99.99,,,0.00,0,weatherlink.com 1.10,2013-02-24 05:44:00,
2013-02-24 00:59:00,72.6,71.0,29.97,East,83,0.0,-999.0,94,-99.99,,,0.00,0,weatherlink.com 1.10,2013-02-24 05:59:00,
2013-02-24 01:14:00,72.3,71.0,29.97,East,83,0.0,-999.0,94,-99.99,,,0.00,0,weatherlink.com 1.10,2013-02-24 06:14:00,
2013-02-24 01:29:00,72.4,71.0,29.96,East,83,0.0,-999.0,95,-99.99,,,0.00,0,weatherlink.com 1.10,2013-02-24 06:29:00,
2013-02-24 01:44:00,72.4,71.0,29.96,East,83,0.0,-999.0,95,-99.99,,,0.00,0,weatherlink.com 1.10,2013-02-24 06:44:00,
2013-02-24 01:59:00,72.2,71.0,29.95,East,83,0.0,-999.0,95,-99.99,,,0.00,0,weatherlink.com 1.10,2013-02-24 06:59:00,
2013-02-24 02:14:00,71.8,70.0,29.95,East,83,0.0,-999.0,95,-99.99,,,0.00,0,weatherlink.com 1.10,2013-02-24 07:14:00,
2013-02-24 02:29:00,72.0,71.0,29.95,East,83,0.0,-999.0,95,-99.99,,,0.00,0,weatherlink.com 1.10,2013-02-24 07:29:00,
2013-02-24 02:44:00,71.8,70.0,29.94,East,83,0.0,-999.0,95,-99.99,,,0.00,0,weatherlink.com 1.10,2013-02-24 07:44:00,
2013-02-24 02:59:00,71.6,70.0,29.94,East,83,0.0,-999.0,95,-99.99,,,0.00,0,weatherlink.com 1.10,2013-02-24 07:59:00,
2013-02-24 03:14:00,71.5,70.0,29.94,East,83,0.0,-999.0,95,-99.99,,,0.00,0,weatherlink.com 1.10,2013-02-24 08:14:00,
2013-02-24 03:29:00,71.2,70.0,29.94,East,83,0.0,-999.0,95,-99.99,,,0.00,0,weatherlink.com 1.10,2013-02-24 08:29:00,
2013-02-24 03:44:00,71.1,70.0,29.93,East,83,0.0,-999.0,95,-99.99,,,0.00,0,weatherlink.com 1.10,2013-02-24 08:44:00,
2013-02-24 03:59:00,71.1,70.0,29.93,East,83,0.0,-999.0,95,-99.99,,,0.00,0,weatherlink.com 1.10,2013-02-24 08:59:00,
2013-02-24 04:15:00,71.0,70.0,29.93,East,83,0.0,-999.0,95,-99.99,,,0.00,0,weatherlink.com 1.10,2013-02-24 09:15:00,
2013-02-24 04:30:00,70.7,69.0,29.93,East,83,0.0,-999.0,95,-99.99,,,0.00,0,weatherlink.com 1.10,2013-02-24 09:30:00,
2013-02-24 04:45:00,70.4,69.0,29.93,East,83,0.0,-999.0,95,-99.99,,,0.00,0,weatherlink.com 1.10,2013-02-24 09:45:00,
2013-02-24 05:00:00,70.0,69.0,29.93,East,83,0.0,-999.0,95,-99.99,,,0.00,0,weatherlink.com 1.10,2013-02-24 10:00:00,
2013-02-24 05:15:00,70.0,69.0,29.93,East,83,0.0,-999.0,95,-99.99,,,0.00,0,weatherlink.com 1.10,2013-02-24 10:15:00,
2013-02-24 05:30:00,69.9,69.0,29.94,East,83,0.0,-999.0,95,-99.99,,,0.00,0,weatherlink.com 1.10,2013-02-24 10:30:00,
2013-02-24 05:45:00,69.8,69.0,29.94,East,83,0.0,-999.0,96,-99.99,,,0.00,0,weatherlink.com 1.10,2013-02-24 10:45:00,
2013-02-24 06:00:00,69.7,69.0,29.94,East,83,0.0,-999.0,96,-99.99,,,0.00,0,weatherlink.com 1.10,2013-02-24 11:00:00,
2013-02-24 06:15:00,69.6,69.0,29.94,East,83,0.0,-999.0,96,-99.99,,,0.00,0,weatherlink.com 1.10,2013-02-24 11:15:00,
2013-02-24 06:30:00,69.5,68.0,29.95,East,83,0.0,-999.0,95,-99.99,,,0.00,0,weatherlink.com 1.10,2013-02-24 11:30:00,
2013-02-24 06:45:00,69.4,68.0,29.95,East,83,0.0,-999.0,95,-99.99,,,0.00,0,weatherlink.com 1.10,2013-02-24 11:45:00,
2013-02-24 07:00:00,69.4,68.0,29.96,NW,307,0.0,-999.0,95,-99.99,,,0.00,11,weatherlink.com 1.10,2013-02-24 12:00:00,
2013-02-24 07:15:00,69.5,68.0,29.96,NW,307,0.0,-999.0,96,-99.99,,,0.00,25,weatherlink.com 1.10,2013-02-24 12:15:00,
2013-02-24 07:30:00,69.9,69.0,29.96,NW,307,0.0,-999.0,96,-99.99,,,0.00,33,weatherlink.com 1.10,2013-02-24 12:30:00,
2013-02-24 07:45:00,70.6,70.0,29.96,NW,307,0.0,-999.0,96,-99.99,,,0.00,60,weatherlink.com 1.10,2013-02-24 12:45:00,
2013-02-24 08:00:00,73.3,72.0,29.96,NW,307,0.0,-999.0,96,-99.99,,,0.00,165,weatherlink.com 1.10,2013-02-24 13:00:00,
2013-02-24 08:15:00,74.3,73.0,29.97,NW,307,0.0,-999.0,96,-99.99,,,0.00,227,weatherlink.com 1.10,2013-02-24 13:15:00,
2013-02-24 08:30:00,74.7,74.0,29.97,WSW,253,0.0,-999.0,96,-99.99,,,0.00,315,weatherlink.com 1.10,2013-02-24 13:30:00,
2013-02-24 08:45:00,75.3,74.0,29.98,WSW,253,0.0,-999.0,96,-99.99,,,0.00,316,weatherlink.com 1.10,2013-02-24 13:45:00,
2013-02-24 09:00:00,75.8,74.0,29.99,WSW,256,0.0,-999.0,94,-99.99,,,0.00,267,weatherlink.com 1.10,2013-02-24 14:00:00,
2013-02-24 09:15:00,76.9,74.0,29.98,WSW,237,2.0,-999.0,91,-99.99,,,0.00,443,weatherlink.com 1.10,2013-02-24 14:15:00,
2013-02-24 09:30:00,78.0,74.0,29.99,WSW,254,0.0,-999.0,88,-99.99,,,0.00,153,weatherlink.com 1.10,2013-02-24 14:30:00,
2013-02-24 09:45:00,79.2,73.0,29.99,WSW,246,0.0,-999.0,82,-99.99,,,0.00,555,weatherlink.com 1.10,2013-02-24 14:45:00,
2013-02-24 10:00:00,80.3,74.0,29.99,WSW,254,0.0,-999.0,80,-99.99,,,0.00,608,weatherlink.com 1.10,2013-02-24 15:00:00,
2013-02-24 10:15:00,80.8,73.0,29.99,WSW,247,0.0,-999.0,76,-99.99,,,0.00,631,weatherlink.com 1.10,2013-02-24 15:15:00,
2013-02-24 10:30:00,80.9,73.0,29.99,West,263,0.0,-999.0,76,-99.99,,,0.00,211,weatherlink.com 1.10,2013-02-24 15:30:00,
2013-02-24 10:45:00,81.5,71.0,29.99,West,262,0.0,-999.0,71,-99.99,,,0.00,603,weatherlink.com 1.10,2013-02-24 15:45:00,
2013-02-24 11:00:00,83.2,73.0,29.98,WSW,258,0.0,-999.0,72,-99.99,,,0.00,751,weatherlink.com 1.10,2013-02-24 16:00:00,
2013-02-24 11:15:00,85.1,73.0,29.98,South,178,0.0,-999.0,67,-99.99,,,0.00,860,weatherlink.com 1.10,2013-02-24 16:15:00,
2013-02-24 11:31:00,83.1,71.0,29.98,WSW,254,0.0,-999.0,68,-99.99,,,0.00,216,weatherlink.com 1.10,2013-02-24 16:31:00,
2013-02-24 11:46:00,83.0,71.0,29.97,WNW,288,0.0,-999.0,68,-99.99,,,0.00,287,weatherlink.com 1.10,2013-02-24 16:46:00,
2013-02-24 12:01:00,82.4,72.0,29.96,WNW,284,0.0,-999.0,71,-99.99,,,0.00,216,weatherlink.com 1.10,2013-02-24 17:01:00,
2013-02-24 12:16:00,81.3,72.0,29.96,West,269,0.0,-999.0,73,-99.99,,,0.00,130,weatherlink.com 1.10,2013-02-24 17:16:00,
2013-02-24 12:31:00,81.6,73.0,29.95,West,261,0.0,-999.0,74,-99.99,,,0.00,190,weatherlink.com 1.10,2013-02-24 17:31:00,
2013-02-24 12:46:00,82.3,74.0,29.94,ESE,121,0.0,-999.0,75,-99.99,,,0.00,141,weatherlink.com 1.10,2013-02-24 17:46:00,
2013-02-24 13:01:00,81.8,74.0,29.94,East,92,7.0,-999.0,76,-99.99,,,0.00,211,weatherlink.com 1.10,2013-02-24 18:01:00,
2013-02-24 13:16:00,81.9,73.0,29.93,ESE,118,0.0,-999.0,75,-99.99,,,0.00,687,weatherlink.com 1.10,2013-02-24 18:16:00,
2013-02-24 13:31:00,85.3,75.0,29.92,East,94,1.0,-999.0,70,-99.99,,,0.00,800,weatherlink.com 1.10,2013-02-24 18:31:00,
2013-02-24 13:46:00,85.0,74.0,29.92,SSE,155,2.0,-999.0,70,-99.99,,,0.00,798,weatherlink.com 1.10,2013-02-24 18:46:00,
2013-02-24 14:01:00,85.2,74.0,29.91,SE,133,0.0,-999.0,69,-99.99,,,0.00,724,weatherlink.com 1.10,2013-02-24 19:01:00,
2013-02-24 14:16:00,84.8,74.0,29.91,SSE,156,1.0,-999.0,69,-99.99,,,0.00,691,weatherlink.com 1.10,2013-02-24 19:16:00,
2013-02-24 14:31:00,85.7,72.0,29.91,SE,141,1.0,-999.0,64,-99.99,,,0.00,652,weatherlink.com 1.10,2013-02-24 19:31:00,
2013-02-24 14:46:00,85.8,73.0,29.91,SE,134,0.0,-999.0,66,-99.99,,,0.00,638,weatherlink.com 1.10,2013-02-24 19:46:00,
2013-02-24 15:01:00,85.5,73.0,29.90,ESE,111,0.0,-999.0,66,-99.99,,,0.00,592,weatherlink.com 1.10,2013-02-24 20:01:00,
2013-02-24 15:16:00,86.2,72.0,29.90,ESE,105,1.0,-999.0,62,-99.99,,,0.00,550,weatherlink.com 1.10,2013-02-24 20:16:00,
2013-02-24 15:31:00,84.2,73.0,29.90,ESE,113,4.0,-999.0,69,-99.99,,,0.00,522,weatherlink.com 1.10,2013-02-24 20:31:00,
2013-02-24 15:46:00,84.5,73.0,29.89,ESE,102,0.0,-999.0,69,-99.99,,,0.00,385,weatherlink.com 1.10,2013-02-24 20:46:00,
2013-02-24 16:01:00,83.0,73.0,29.90,ESE,102,0.0,-999.0,71,-99.99,,,0.00,107,weatherlink.com 1.10,2013-02-24 21:01:00,
2013-02-24 16:16:00,82.5,73.0,29.91,ESE,102,0.0,-999.0,72,-99.99,,,0.00,76,weatherlink.com 1.10,2013-02-24 21:16:00,
2013-02-24 16:31:00,81.7,72.0,29.90,SE,139,0.0,-999.0,73,-99.99,,,0.00,67,weatherlink.com 1.10,2013-02-24 21:31:00,
2013-02-24 16:46:00,80.9,72.0,29.90,ESE,118,0.0,-999.0,74,-99.99,,,0.00,197,weatherlink.com 1.10,2013-02-24 21:46:00,
2013-02-24 17:01:00,81.8,72.0,29.90,ESE,119,0.0,-999.0,73,-99.99,,,0.00,216,weatherlink.com 1.10,2013-02-24 22:01:00,
2013-02-24 17:16:00,81.7,72.0,29.91,East,95,0.0,-999.0,72,-99.99,,,0.00,176,weatherlink.com 1.10,2013-02-24 22:16:00,
2013-02-24 17:31:00,81.5,72.0,29.91,East,81,0.0,-999.0,73,-99.99,,,0.00,77,weatherlink.com 1.10,2013-02-24 22:31:00,
2013-02-24 17:46:00,81.1,73.0,29.91,ESE,114,0.0,-999.0,75,-99.99,,,0.00,33,weatherlink.com 1.10,2013-02-24 22:46:00,
2013-02-24 18:01:00,80.7,73.0,29.91,ESE,114,0.0,-999.0,76,-99.99,,,0.00,19,weatherlink.com 1.10,2013-02-24 23:01:00,
2013-02-24 18:16:00,79.9,72.0,29.91,ESE,114,0.0,-999.0,76,-99.99,,,0.00,7,weatherlink.com 1.10,2013-02-24 23:16:00,
2013-02-24 18:31:00,79.2,72.0,29.91,ESE,111,0.0,-999.0,78,-99.99,,,0.00,0,weatherlink.com 1.10,2013-02-24 23:31:00,
2013-02-24 18:46:00,78.7,72.0,29.91,ESE,110,0.0,-999.0,79,-99.99,,,0.00,0,weatherlink.com 1.10,2013-02-24 23:46:00,
2013-02-24 19:01:00,78.2,72.0,29.92,ESE,110,0.0,-999.0,81,-99.99,,,0.00,0,weatherlink.com 1.10,2013-02-25 00:01:00,
2013-02-24 19:16:00,77.6,72.0,29.93,ESE,109,0.0,-999.0,82,-99.99,,,0.00,0,weatherlink.com 1.10,2013-02-25 00:16:00,
2013-02-24 19:31:00,77.1,72.0,29.92,ESE,109,0.0,-999.0,83,-99.99,,,0.00,0,weatherlink.com 1.10,2013-02-25 00:31:00,
2013-02-24 19:46:00,76.6,71.0,29.93,ESE,109,0.0,-999.0,83,-99.99,,,0.00,0,weatherlink.com 1.10,2013-02-25 00:46:00,
2013-02-24 20:01:00,76.2,71.0,29.93,ESE,109,0.0,-999.0,84,-99.99,,,0.00,0,weatherlink.com 1.10,2013-02-25 01:01:00,
2013-02-24 20:16:00,75.8,71.0,29.93,ESE,109,0.0,-999.0,84,-99.99,,,0.00,0,weatherlink.com 1.10,2013-02-25 01:16:00,
2013-02-24 20:31:00,75.5,70.0,29.93,ESE,109,0.0,-999.0,84,-99.99,,,0.00,0,weatherlink.com 1.10,2013-02-25 01:31:00,
2013-02-24 20:46:00,75.2,70.0,29.94,ESE,109,0.0,-999.0,84,-99.99,,,0.00,0,weatherlink.com 1.10,2013-02-25 01:46:00,
2013-02-24 21:01:00,74.9,70.0,29.94,ESE,109,0.0,-999.0,84,-99.99,,,0.00,0,weatherlink.com 1.10,2013-02-25 02:01:00,
2013-02-24 21:16:00,74.6,70.0,29.94,ESE,109,0.0,-999.0,85,-99.99,,,0.00,0,weatherlink.com 1.10,2013-02-25 02:16:00,
2013-02-24 21:31:00,74.3,70.0,29.94,ESE,109,0.0,-999.0,85,-99.99,,,0.00,0,weatherlink.com 1.10,2013-02-25 02:31:00,
2013-02-24 21:46:00,74.1,69.0,29.94,ESE,109,0.0,-999.0,85,-99.99,,,0.00,0,weatherlink.com 1.10,2013-02-25 02:46:00,
2013-02-24 22:01:00,73.8,69.0,29.94,ESE,109,0.0,-999.0,86,-99.99,,,0.00,0,weatherlink.com 1.10,2013-02-25 03:01:00,
2013-02-24 22:16:00,73.5,69.0,29.94,ESE,109,0.0,-999.0,86,-99.99,,,0.00,0,weatherlink.com 1.10,2013-02-25 03:16:00,
2013-02-24 22:31:00,73.5,70.0,29.93,ESE,109,0.0,-999.0,87,-99.99,,,0.00,0,weatherlink.com 1.10,2013-02-25 03:31:00,
2013-02-24 22:46:00,73.2,69.0,29.94,ESE,109,0.0,-999.0,87,-99.99,,,0.00,0,weatherlink.com 1.10,2013-02-25 03:46:00,
2013-02-24 23:01:00,73.0,69.0,29.93,ESE,109,0.0,-999.0,87,-99.99,,,0.00,0,weatherlink.com 1.10,2013-02-25 04:01:00,
2013-02-24 23:16:00,72.8,69.0,29.93,ESE,109,0.0,-999.0,87,-99.99,,,0.00,0,weatherlink.com 1.10,2013-02-25 04:16:00,
2013-02-24 23:31:00,72.7,69.0,29.92,ESE,109,0.0,-999.0,88,-99.99,,,0.00,0,weatherlink.com 1.10,2013-02-25 04:31:00,
2013-02-24 23:46:00,72.5,69.0,29.92,ESE,109,0.0,-999.0,88,-99.99,,,0.00,0,weatherlink.com 1.10,2013-02-25 04:46:00,